owner,sensor,date,latitude,longitude,air_pressure(mBar),qcFlag 
TABS,ioos:station:wmo:42043:1,2013-02-01T00:00:00Z,28.9818,-94.9186,1024.88,11111222 
TABS,ioos:station:wmo:42043:1,2013-02-01T00:30:00Z,28.9818,-94.9186,1025.02,11111222 
TABS,ioos:station:wmo:42043:1,2013-02-01T01:00:00Z,28.9818,-94.9186,1024.77,11111222 
TABS,ioos:station:wmo:42043:1,2013-02-01T01:30:00Z,28.9818,-94.9186,1025.29,11111222 
TABS,ioos:station:wmo:42043:1,2013-02-01T02:00:00Z,28.9818,-94.9186,1025.74,11111222 
TABS,ioos:station:wmo:42043:1,2013-02-01T02:30:00Z,28.9818,-94.9186,1026.25,11111222 
TABS,ioos:station:wmo:42043:1,2013-02-01T03:00:00Z,28.9818,-94.9186,1026.63,11111222 
TABS,ioos:station:wmo:42043:1,2013-02-01T03:30:00Z,28.9818,-94.9186,1026.72,11111222 
TABS,ioos:station:wmo:42043:1,2013-02-01T04:00:00Z,28.9818,-94.9186,1026.72,11111222 
TABS,ioos:station:wmo:42043:1,2013-02-01T04:30:00Z,28.9818,-94.9186,1027.16,11111222 
TABS,ioos:station:wmo:42043:1,2013-02-01T05:00:00Z,28.9818,-94.9186,1026.97,11111222 
TABS,ioos:station:wmo:42043:1,2013-02-01T05:30:00Z,28.9818,-94.9186,1026.77,11111222 
TABS,ioos:station:wmo:42043:1,2013-02-01T06:00:00Z,28.9818,-94.9186,1026.73,11111222 
TABS,ioos:station:wmo:42043:1,2013-02-01T06:30:00Z,28.9818,-94.9186,1026.17,11111222 
TABS,ioos:station:wmo:42043:1,2013-02-01T07:00:00Z,28.9818,-94.9186,1026.05,11111222 
TABS,ioos:station:wmo:42043:1,2013-02-01T07:30:00Z,28.9818,-94.9186,1025.91,11111222 
TABS,ioos:station:wmo:42043:1,2013-02-01T08:00:00Z,28.9818,-94.9186,1025.88,11111222 
TABS,ioos:station:wmo:42043:1,2013-02-01T08:30:00Z,28.9818,-94.9186,1025.75,11111222 
TABS,ioos:station:wmo:42043:1,2013-02-01T09:00:00Z,28.9818,-94.9186,1025.84,11111222 
TABS,ioos:station:wmo:42043:1,2013-02-01T09:30:00Z,28.9818,-94.9186,1025.68,11111222 
TABS,ioos:station:wmo:42043:1,2013-02-01T10:00:00Z,28.9818,-94.9186,1026.03,11111222 
TABS,ioos:station:wmo:42043:1,2013-02-01T10:30:00Z,28.9818,-94.9186,1026.2,11111222 
TABS,ioos:station:wmo:42043:1,2013-02-01T11:00:00Z,28.9818,-94.9186,1026.26,11111222 
TABS,ioos:station:wmo:42043:1,2013-02-01T11:30:00Z,28.9818,-94.9186,1026.47,11111222 
TABS,ioos:station:wmo:42043:1,2013-02-01T12:00:00Z,28.9818,-94.9186,1026.86,11111222 
TABS,ioos:station:wmo:42043:1,2013-02-01T12:30:00Z,28.9818,-94.9186,1026.79,11111222 
TABS,ioos:station:wmo:42043:1,2013-02-01T13:00:00Z,28.9818,-94.9186,1026.89,11111222 
TABS,ioos:station:wmo:42043:1,2013-02-01T13:30:00Z,28.9818,-94.9186,1026.98,11111222 
TABS,ioos:station:wmo:42043:1,2013-02-01T14:00:00Z,28.9818,-94.9186,1027.45,11111222 
TABS,ioos:station:wmo:42043:1,2013-02-01T14:30:00Z,28.9818,-94.9186,1027.71,11111222 
TABS,ioos:station:wmo:42043:1,2013-02-01T15:00:00Z,28.9818,-94.9186,1028.2,11111222 
TABS,ioos:station:wmo:42043:1,2013-02-01T15:30:00Z,28.9818,-94.9186,1028.61,11111222 
TABS,ioos:station:wmo:42043:1,2013-02-01T16:00:00Z,28.9818,-94.9186,1028.7,11111222 
TABS,ioos:station:wmo:42043:1,2013-02-01T16:30:00Z,28.9818,-94.9186,1028.45,11111222 
TABS,ioos:station:wmo:42043:1,2013-02-01T17:00:00Z,28.9818,-94.9186,1028.25,11111222 
TABS,ioos:station:wmo:42043:1,2013-02-01T17:30:00Z,28.9818,-94.9186,1028.06,11111222 
TABS,ioos:station:wmo:42043:1,2013-02-01T18:00:00Z,28.9818,-94.9186,1027.82,11111222 
TABS,ioos:station:wmo:42043:1,2013-02-01T18:30:00Z,28.9818,-94.9186,1027.6,11111222 
TABS,ioos:station:wmo:42043:1,2013-02-01T19:00:00Z,28.9818,-94.9186,1027.15,11111222 
TABS,ioos:station:wmo:42043:1,2013-02-01T19:30:00Z,28.9818,-94.9186,1026.62,11111222 
TABS,ioos:station:wmo:42043:1,2013-02-01T20:00:00Z,28.9818,-94.9186,1026.36,11111222 
TABS,ioos:station:wmo:42043:1,2013-02-01T20:30:00Z,28.9818,-94.9186,1026.2,11111222 
TABS,ioos:station:wmo:42043:1,2013-02-01T21:00:00Z,28.9818,-94.9186,1025.87,11111222 
TABS,ioos:station:wmo:42043:1,2013-02-01T21:30:00Z,28.9818,-94.9186,1025.68,11111222 
TABS,ioos:station:wmo:42043:1,2013-02-01T22:00:00Z,28.9818,-94.9186,1025.58,11111222 
TABS,ioos:station:wmo:42043:1,2013-02-01T22:30:00Z,28.9818,-94.9186,1025.66,11111222 
TABS,ioos:station:wmo:42043:1,2013-02-01T23:00:00Z,28.9818,-94.9186,1025.53,11111222 
TABS,ioos:station:wmo:42043:1,2013-02-01T23:30:00Z,28.9818,-94.9186,1025.45,11111222 
TABS,ioos:station:wmo:42043:1,2013-02-02T00:00:00Z,28.9818,-94.9186,1025.4,11111222 
TABS,ioos:station:wmo:42043:1,2013-02-02T00:30:00Z,28.9818,-94.9186,1025.38,11111222 
TABS,ioos:station:wmo:42043:1,2013-02-02T01:00:00Z,28.9818,-94.9186,1025.16,11111222 
TABS,ioos:station:wmo:42043:1,2013-02-02T01:30:00Z,28.9818,-94.9186,1025.14,11111222 
TABS,ioos:station:wmo:42043:1,2013-02-02T02:00:00Z,28.9818,-94.9186,1025.18,11111222 
TABS,ioos:station:wmo:42043:1,2013-02-02T02:30:00Z,28.9818,-94.9186,1024.99,11111222 
TABS,ioos:station:wmo:42043:1,2013-02-02T03:00:00Z,28.9818,-94.9186,1025.1,11111222 
TABS,ioos:station:wmo:42043:1,2013-02-02T03:30:00Z,28.9818,-94.9186,1024.96,11111222 
TABS,ioos:station:wmo:42043:1,2013-02-02T04:00:00Z,28.9818,-94.9186,1024.92,11111222 
TABS,ioos:station:wmo:42043:1,2013-02-02T04:30:00Z,28.9818,-94.9186,1024.83,11111222 
TABS,ioos:station:wmo:42043:1,2013-02-02T05:00:00Z,28.9818,-94.9186,1024.41,11111222 
TABS,ioos:station:wmo:42043:1,2013-02-02T05:30:00Z,28.9818,-94.9186,1024.13,11111222 
TABS,ioos:station:wmo:42043:1,2013-02-02T06:00:00Z,28.9818,-94.9186,1024.07,11111222 
TABS,ioos:station:wmo:42043:1,2013-02-02T06:30:00Z,28.9818,-94.9186,1023.91,11111222 
TABS,ioos:station:wmo:42043:1,2013-02-02T07:00:00Z,28.9818,-94.9186,1023.52,11111222 
TABS,ioos:station:wmo:42043:1,2013-02-02T07:30:00Z,28.9818,-94.9186,1023.68,11111222 
TABS,ioos:station:wmo:42043:1,2013-02-02T08:00:00Z,28.9818,-94.9186,1023.35,11111222 
TABS,ioos:station:wmo:42043:1,2013-02-02T08:30:00Z,28.9818,-94.9186,1023.34,11111222 
TABS,ioos:station:wmo:42043:1,2013-02-02T09:00:00Z,28.9818,-94.9186,1023.23,11111222 
TABS,ioos:station:wmo:42043:1,2013-02-02T09:30:00Z,28.9818,-94.9186,1023.21,11111222 
TABS,ioos:station:wmo:42043:1,2013-02-02T10:00:00Z,28.9818,-94.9186,1023.19,11111222 
TABS,ioos:station:wmo:42043:1,2013-02-02T10:30:00Z,28.9818,-94.9186,1023.09,11111222 
TABS,ioos:station:wmo:42043:1,2013-02-02T11:00:00Z,28.9818,-94.9186,1023.16,11111222 
TABS,ioos:station:wmo:42043:1,2013-02-02T11:30:00Z,28.9818,-94.9186,1023.25,11111222 
TABS,ioos:station:wmo:42043:1,2013-02-02T12:00:00Z,28.9818,-94.9186,1023.49,11111222 
TABS,ioos:station:wmo:42043:1,2013-02-02T12:30:00Z,28.9818,-94.9186,1023.74,11111222 
TABS,ioos:station:wmo:42043:1,2013-02-02T13:00:00Z,28.9818,-94.9186,1023.83,11111222 
TABS,ioos:station:wmo:42043:1,2013-02-02T13:30:00Z,28.9818,-94.9186,1024.1,11111222 
TABS,ioos:station:wmo:42043:1,2013-02-02T14:00:00Z,28.9818,-94.9186,1024.38,11111222 
TABS,ioos:station:wmo:42043:1,2013-02-02T14:30:00Z,28.9818,-94.9186,1024.64,11111222 
TABS,ioos:station:wmo:42043:1,2013-02-02T15:00:00Z,28.9818,-94.9186,1024.75,11111222 
TABS,ioos:station:wmo:42043:1,2013-02-02T15:30:00Z,28.9818,-94.9186,1024.94,11111222 
TABS,ioos:station:wmo:42043:1,2013-02-02T16:00:00Z,28.9818,-94.9186,1025.02,11111222 
TABS,ioos:station:wmo:42043:1,2013-02-02T16:30:00Z,28.9818,-94.9186,1025.01,11111222 
TABS,ioos:station:wmo:42043:1,2013-02-02T17:00:00Z,28.9818,-94.9186,1024.8,11111222 
TABS,ioos:station:wmo:42043:1,2013-02-02T17:30:00Z,28.9818,-94.9186,1024.62,11111222 
TABS,ioos:station:wmo:42043:1,2013-02-02T18:00:00Z,28.9818,-94.9186,1024.27,11111222 
TABS,ioos:station:wmo:42043:1,2013-02-02T18:30:00Z,28.9818,-94.9186,1023.89,11111222 
TABS,ioos:station:wmo:42043:1,2013-02-02T19:00:00Z,28.9818,-94.9186,1023.51,11111222 
TABS,ioos:station:wmo:42043:1,2013-02-02T19:30:00Z,28.9818,-94.9186,1023.09,11111222 
TABS,ioos:station:wmo:42043:1,2013-02-02T20:00:00Z,28.9818,-94.9186,1023.01,11111222 
TABS,ioos:station:wmo:42043:1,2013-02-02T20:30:00Z,28.9818,-94.9186,1022.86,11111222 
TABS,ioos:station:wmo:42043:1,2013-02-02T21:00:00Z,28.9818,-94.9186,1022.62,11111222 
TABS,ioos:station:wmo:42043:1,2013-02-02T21:30:00Z,28.9818,-94.9186,1022.45,11111222 
TABS,ioos:station:wmo:42043:1,2013-02-02T22:00:00Z,28.9818,-94.9186,1022.41,11111222 
TABS,ioos:station:wmo:42043:1,2013-02-02T22:30:00Z,28.9818,-94.9186,1022.5,11111222 
TABS,ioos:station:wmo:42043:1,2013-02-02T23:00:00Z,28.9818,-94.9186,1022.39,11111222 
TABS,ioos:station:wmo:42043:1,2013-02-02T23:30:00Z,28.9818,-94.9186,1022.34,11111222 
TABS,ioos:station:wmo:42043:1,2013-02-03T00:00:00Z,28.9818,-94.9186,1022.53,11111222 
TABS,ioos:station:wmo:42043:1,2013-02-03T00:30:00Z,28.9818,-94.9186,1022.76,11111222 
TABS,ioos:station:wmo:42043:1,2013-02-03T01:00:00Z,28.9818,-94.9186,1022.99,11111222 
TABS,ioos:station:wmo:42043:1,2013-02-03T01:30:00Z,28.9818,-94.9186,1023.23,11111222 
TABS,ioos:station:wmo:42043:1,2013-02-03T02:00:00Z,28.9818,-94.9186,1023.52,11111222 
TABS,ioos:station:wmo:42043:1,2013-02-03T02:30:00Z,28.9818,-94.9186,1023.77,11111222 
TABS,ioos:station:wmo:42043:1,2013-02-03T03:00:00Z,28.9818,-94.9186,1024.12,11111222 
TABS,ioos:station:wmo:42043:1,2013-02-03T03:30:00Z,28.9818,-94.9186,1024.24,11111222 
TABS,ioos:station:wmo:42043:1,2013-02-03T04:00:00Z,28.9818,-94.9186,1024.24,11111222 
TABS,ioos:station:wmo:42043:1,2013-02-03T04:30:00Z,28.9818,-94.9186,1024.3,11111222 
TABS,ioos:station:wmo:42043:1,2013-02-03T05:00:00Z,28.9818,-94.9186,1024.29,11111222 
TABS,ioos:station:wmo:42043:1,2013-02-03T05:30:00Z,28.9818,-94.9186,1024.2,11111222 
TABS,ioos:station:wmo:42043:1,2013-02-03T06:00:00Z,28.9818,-94.9186,1024.15,11111222 
TABS,ioos:station:wmo:42043:1,2013-02-03T06:30:00Z,28.9818,-94.9186,1024.14,11111222 
TABS,ioos:station:wmo:42043:1,2013-02-03T07:00:00Z,28.9818,-94.9186,1024.25,11111222 
TABS,ioos:station:wmo:42043:1,2013-02-03T07:30:00Z,28.9818,-94.9186,1024.19,11111222 
TABS,ioos:station:wmo:42043:1,2013-02-03T08:00:00Z,28.9818,-94.9186,1023.91,11111222 
TABS,ioos:station:wmo:42043:1,2013-02-03T08:30:00Z,28.9818,-94.9186,1023.97,11111222 
TABS,ioos:station:wmo:42043:1,2013-02-03T09:00:00Z,28.9818,-94.9186,1024.03,11111222 
TABS,ioos:station:wmo:42043:1,2013-02-03T09:30:00Z,28.9818,-94.9186,1024.26,11111222 
TABS,ioos:station:wmo:42043:1,2013-02-03T10:00:00Z,28.9818,-94.9186,1024.18,11111222 
TABS,ioos:station:wmo:42043:1,2013-02-03T10:30:00Z,28.9818,-94.9186,1024.25,11111222 
TABS,ioos:station:wmo:42043:1,2013-02-03T11:00:00Z,28.9818,-94.9186,1024.48,11111222 
TABS,ioos:station:wmo:42043:1,2013-02-03T11:30:00Z,28.9818,-94.9186,1024.51,11111222 
TABS,ioos:station:wmo:42043:1,2013-02-03T12:00:00Z,28.9818,-94.9186,1024.57,11111222 
TABS,ioos:station:wmo:42043:1,2013-02-03T12:30:00Z,28.9818,-94.9186,1024.65,11111222 
TABS,ioos:station:wmo:42043:1,2013-02-03T13:00:00Z,28.9818,-94.9186,1024.81,11111222 
TABS,ioos:station:wmo:42043:1,2013-02-03T13:30:00Z,28.9818,-94.9186,1025.23,11111222 
TABS,ioos:station:wmo:42043:1,2013-02-03T14:00:00Z,28.9818,-94.9186,1025.38,11111222 
TABS,ioos:station:wmo:42043:1,2013-02-03T14:30:00Z,28.9818,-94.9186,1025.91,11111222 
TABS,ioos:station:wmo:42043:1,2013-02-03T15:00:00Z,28.9818,-94.9186,1025.94,11111222 
TABS,ioos:station:wmo:42043:1,2013-02-03T15:30:00Z,28.9818,-94.9186,1026.42,11111222 
TABS,ioos:station:wmo:42043:1,2013-02-03T16:00:00Z,28.9818,-94.9186,1026.71,11111222 
TABS,ioos:station:wmo:42043:1,2013-02-03T16:30:00Z,28.9818,-94.9186,1026.5,11111222 
TABS,ioos:station:wmo:42043:1,2013-02-03T17:00:00Z,28.9818,-94.9186,1026.45,11111222 
TABS,ioos:station:wmo:42043:1,2013-02-03T17:30:00Z,28.9818,-94.9186,1026.09,11111222 
TABS,ioos:station:wmo:42043:1,2013-02-03T18:00:00Z,28.9818,-94.9186,1025.48,11111222 
TABS,ioos:station:wmo:42043:1,2013-02-03T18:30:00Z,28.9818,-94.9186,1025.06,11111222 
TABS,ioos:station:wmo:42043:1,2013-02-03T19:00:00Z,28.9818,-94.9186,1024.54,11111222 
TABS,ioos:station:wmo:42043:1,2013-02-03T19:30:00Z,28.9818,-94.9186,1024.04,11111222 
TABS,ioos:station:wmo:42043:1,2013-02-03T20:00:00Z,28.9818,-94.9186,1023.48,11111222 
TABS,ioos:station:wmo:42043:1,2013-02-03T20:30:00Z,28.9818,-94.9186,1023.22,11111222 
TABS,ioos:station:wmo:42043:1,2013-02-03T21:00:00Z,28.9818,-94.9186,1022.69,11111222 
TABS,ioos:station:wmo:42043:1,2013-02-03T21:30:00Z,28.9818,-94.9186,1022.21,11111222 
TABS,ioos:station:wmo:42043:1,2013-02-04T00:00:00Z,28.9818,-94.9186,1020.94,11111222 
TABS,ioos:station:wmo:42043:1,2013-02-04T00:30:00Z,28.9818,-94.9186,1020.8,11111222 
TABS,ioos:station:wmo:42043:1,2013-02-04T01:00:00Z,28.9818,-94.9186,1020.9,11111222 
TABS,ioos:station:wmo:42043:1,2013-02-04T01:30:00Z,28.9818,-94.9186,1021.09,11111222 
TABS,ioos:station:wmo:42043:1,2013-02-04T02:00:00Z,28.9818,-94.9186,1021.14,11111222 
TABS,ioos:station:wmo:42043:1,2013-02-04T02:30:00Z,28.9818,-94.9186,1021.0,11111222 
TABS,ioos:station:wmo:42043:1,2013-02-04T03:00:00Z,28.9818,-94.9186,1020.62,11111222 
TABS,ioos:station:wmo:42043:1,2013-02-04T03:30:00Z,28.9818,-94.9186,1020.28,11111222 
TABS,ioos:station:wmo:42043:1,2013-02-04T04:00:00Z,28.9818,-94.9186,1019.97,11111222 
TABS,ioos:station:wmo:42043:1,2013-02-04T04:30:00Z,28.9818,-94.9186,1019.52,11111222 
TABS,ioos:station:wmo:42043:1,2013-02-04T05:00:00Z,28.9818,-94.9186,1019.33,11111222 
TABS,ioos:station:wmo:42043:1,2013-02-04T05:30:00Z,28.9818,-94.9186,1018.81,11111222 
TABS,ioos:station:wmo:42043:1,2013-02-04T06:00:00Z,28.9818,-94.9186,1018.37,11111222 
TABS,ioos:station:wmo:42043:1,2013-02-04T06:30:00Z,28.9818,-94.9186,1017.82,11111222 
TABS,ioos:station:wmo:42043:1,2013-02-04T07:00:00Z,28.9818,-94.9186,1017.17,11111222 
TABS,ioos:station:wmo:42043:1,2013-02-04T07:30:00Z,28.9818,-94.9186,1016.96,11111222 
TABS,ioos:station:wmo:42043:1,2013-02-04T08:00:00Z,28.9818,-94.9186,1016.51,11111222 
TABS,ioos:station:wmo:42043:1,2013-02-04T08:30:00Z,28.9818,-94.9186,1016.54,11111222 
TABS,ioos:station:wmo:42043:1,2013-02-04T09:00:00Z,28.9818,-94.9186,1016.27,11111222 
TABS,ioos:station:wmo:42043:1,2013-02-04T09:30:00Z,28.9818,-94.9186,1016.09,11111222 
TABS,ioos:station:wmo:42043:1,2013-02-04T10:00:00Z,28.9818,-94.9186,1015.78,11111222 
TABS,ioos:station:wmo:42043:1,2013-02-04T10:30:00Z,28.9818,-94.9186,1015.83,11111222 
TABS,ioos:station:wmo:42043:1,2013-02-04T11:00:00Z,28.9818,-94.9186,1015.67,11111222 
TABS,ioos:station:wmo:42043:1,2013-02-04T11:30:00Z,28.9818,-94.9186,1015.58,11111222 
TABS,ioos:station:wmo:42043:1,2013-02-04T12:00:00Z,28.9818,-94.9186,1015.53,11111222 
TABS,ioos:station:wmo:42043:1,2013-02-04T12:30:00Z,28.9818,-94.9186,1015.24,11111222 
TABS,ioos:station:wmo:42043:1,2013-02-04T13:00:00Z,28.9818,-94.9186,1015.31,11111222 
TABS,ioos:station:wmo:42043:1,2013-02-04T13:30:00Z,28.9818,-94.9186,1015.18,11111222 
TABS,ioos:station:wmo:42043:1,2013-02-04T14:00:00Z,28.9818,-94.9186,1015.42,11111222 
TABS,ioos:station:wmo:42043:1,2013-02-04T14:30:00Z,28.9818,-94.9186,1015.4,11111222 
TABS,ioos:station:wmo:42043:1,2013-02-04T15:00:00Z,28.9818,-94.9186,1015.54,11111222 
TABS,ioos:station:wmo:42043:1,2013-02-04T15:30:00Z,28.9818,-94.9186,1015.48,11111222 
TABS,ioos:station:wmo:42043:1,2013-02-04T16:00:00Z,28.9818,-94.9186,1015.8,11111222 
TABS,ioos:station:wmo:42043:1,2013-02-04T16:30:00Z,28.9818,-94.9186,1015.56,11111222 
TABS,ioos:station:wmo:42043:1,2013-02-04T17:00:00Z,28.9818,-94.9186,1014.98,11111222 
TABS,ioos:station:wmo:42043:1,2013-02-04T17:30:00Z,28.9818,-94.9186,1014.41,11111222 
TABS,ioos:station:wmo:42043:1,2013-02-04T18:00:00Z,28.9818,-94.9186,1014.12,11111222 
TABS,ioos:station:wmo:42043:1,2013-02-04T18:30:00Z,28.9818,-94.9186,1013.59,11111222 
TABS,ioos:station:wmo:42043:1,2013-02-04T19:00:00Z,28.9818,-94.9186,1013.24,11111222 
TABS,ioos:station:wmo:42043:1,2013-02-04T19:30:00Z,28.9818,-94.9186,1012.63,11111222 
TABS,ioos:station:wmo:42043:1,2013-02-04T20:00:00Z,28.9818,-94.9186,1012.01,11111222 
TABS,ioos:station:wmo:42043:1,2013-02-04T20:30:00Z,28.9818,-94.9186,1011.84,11111222 
TABS,ioos:station:wmo:42043:1,2013-02-04T21:00:00Z,28.9818,-94.9186,1011.66,11111222 
TABS,ioos:station:wmo:42043:1,2013-02-04T21:30:00Z,28.9818,-94.9186,1011.22,11111222 
TABS,ioos:station:wmo:42043:1,2013-02-04T22:00:00Z,28.9818,-94.9186,1011.15,11111222 
TABS,ioos:station:wmo:42043:1,2013-02-04T22:30:00Z,28.9818,-94.9186,1010.95,11111222 
TABS,ioos:station:wmo:42043:1,2013-02-04T23:00:00Z,28.9818,-94.9186,1011.08,11111222 
TABS,ioos:station:wmo:42043:1,2013-02-04T23:30:00Z,28.9818,-94.9186,1011.14,11111222 
TABS,ioos:station:wmo:42043:1,2013-02-05T00:00:00Z,28.9818,-94.9186,1010.95,11111222 
TABS,ioos:station:wmo:42043:1,2013-02-05T00:30:00Z,28.9818,-94.9186,1010.89,11111222 
TABS,ioos:station:wmo:42043:1,2013-02-05T01:00:00Z,28.9818,-94.9186,1011.21,11111222 
TABS,ioos:station:wmo:42043:1,2013-02-05T01:30:00Z,28.9818,-94.9186,1011.7,11111222 
TABS,ioos:station:wmo:42043:1,2013-02-05T02:00:00Z,28.9818,-94.9186,1012.12,11111222 
TABS,ioos:station:wmo:42043:1,2013-02-05T02:30:00Z,28.9818,-94.9186,1012.3,11111222 
TABS,ioos:station:wmo:42043:1,2013-02-05T03:00:00Z,28.9818,-94.9186,1012.29,11111222 
TABS,ioos:station:wmo:42043:1,2013-02-05T03:30:00Z,28.9818,-94.9186,1012.58,11111222 
TABS,ioos:station:wmo:42043:1,2013-02-05T04:00:00Z,28.9818,-94.9186,1012.58,11111222 
TABS,ioos:station:wmo:42043:1,2013-02-05T04:30:00Z,28.9818,-94.9186,1012.77,11111222 
TABS,ioos:station:wmo:42043:1,2013-02-05T05:00:00Z,28.9818,-94.9186,1012.6,11111222 
TABS,ioos:station:wmo:42043:1,2013-02-05T05:30:00Z,28.9818,-94.9186,1012.64,11111222 
TABS,ioos:station:wmo:42043:1,2013-02-05T06:00:00Z,28.9818,-94.9186,1012.4,11111222 
TABS,ioos:station:wmo:42043:1,2013-02-05T06:30:00Z,28.9818,-94.9186,1012.28,11111222 
TABS,ioos:station:wmo:42043:1,2013-02-05T07:00:00Z,28.9818,-94.9186,1012.37,11111222 
TABS,ioos:station:wmo:42043:1,2013-02-05T07:30:00Z,28.9818,-94.9186,1012.31,11111222 
TABS,ioos:station:wmo:42043:1,2013-02-05T08:00:00Z,28.9818,-94.9186,1011.96,11111222 
TABS,ioos:station:wmo:42043:1,2013-02-05T08:30:00Z,28.9818,-94.9186,1011.85,11111222 
TABS,ioos:station:wmo:42043:1,2013-02-05T09:00:00Z,28.9818,-94.9186,1011.89,11111222 
TABS,ioos:station:wmo:42043:1,2013-02-05T09:30:00Z,28.9818,-94.9186,1011.92,11111222 
TABS,ioos:station:wmo:42043:1,2013-02-05T10:00:00Z,28.9818,-94.9186,1011.92,11111222 
TABS,ioos:station:wmo:42043:1,2013-02-05T10:30:00Z,28.9818,-94.9186,1012.07,11111222 
TABS,ioos:station:wmo:42043:1,2013-02-05T11:00:00Z,28.9818,-94.9186,1012.44,11111222 
TABS,ioos:station:wmo:42043:1,2013-02-05T11:30:00Z,28.9818,-94.9186,1012.8,11111222 
TABS,ioos:station:wmo:42043:1,2013-02-05T12:00:00Z,28.9818,-94.9186,1013.14,11111222 
TABS,ioos:station:wmo:42043:1,2013-02-05T12:30:00Z,28.9818,-94.9186,1013.32,11111222 
TABS,ioos:station:wmo:42043:1,2013-02-05T13:00:00Z,28.9818,-94.9186,1013.62,11111222 
TABS,ioos:station:wmo:42043:1,2013-02-05T13:30:00Z,28.9818,-94.9186,1013.86,11111222 
TABS,ioos:station:wmo:42043:1,2013-02-05T14:00:00Z,28.9818,-94.9186,1014.25,11111222 
TABS,ioos:station:wmo:42043:1,2013-02-05T14:30:00Z,28.9818,-94.9186,1014.65,11111222 
TABS,ioos:station:wmo:42043:1,2013-02-05T15:00:00Z,28.9818,-94.9186,1015.1,11111222 
TABS,ioos:station:wmo:42043:1,2013-02-05T15:30:00Z,28.9818,-94.9186,1015.31,11111222 
TABS,ioos:station:wmo:42043:1,2013-02-05T16:00:00Z,28.9818,-94.9186,1015.73,11111222 
TABS,ioos:station:wmo:42043:1,2013-02-05T16:30:00Z,28.9818,-94.9186,1015.76,11111222 
TABS,ioos:station:wmo:42043:1,2013-02-05T17:00:00Z,28.9818,-94.9186,1015.83,11111222 
TABS,ioos:station:wmo:42043:1,2013-02-05T17:30:00Z,28.9818,-94.9186,1015.66,11111222 
TABS,ioos:station:wmo:42043:1,2013-02-05T18:00:00Z,28.9818,-94.9186,1015.27,11111222 
TABS,ioos:station:wmo:42043:1,2013-02-05T18:30:00Z,28.9818,-94.9186,1014.73,11111222 
TABS,ioos:station:wmo:42043:1,2013-02-05T19:00:00Z,28.9818,-94.9186,1014.2,11111222 
TABS,ioos:station:wmo:42043:1,2013-02-05T19:30:00Z,28.9818,-94.9186,1013.74,11111222 
TABS,ioos:station:wmo:42043:1,2013-02-05T20:00:00Z,28.9818,-94.9186,1013.77,11111222 
TABS,ioos:station:wmo:42043:1,2013-02-05T20:30:00Z,28.9818,-94.9186,1013.61,11111222 
TABS,ioos:station:wmo:42043:1,2013-02-05T21:00:00Z,28.9818,-94.9186,1013.35,11111222 
TABS,ioos:station:wmo:42043:1,2013-02-05T21:30:00Z,28.9818,-94.9186,1013.3,11111222 
TABS,ioos:station:wmo:42043:1,2013-02-05T22:00:00Z,28.9818,-94.9186,1013.28,11111222 
TABS,ioos:station:wmo:42043:1,2013-02-05T22:30:00Z,28.9818,-94.9186,1013.16,11111222 
TABS,ioos:station:wmo:42043:1,2013-02-05T23:00:00Z,28.9818,-94.9186,1013.21,11111222 
TABS,ioos:station:wmo:42043:1,2013-02-05T23:30:00Z,28.9818,-94.9186,1013.33,11111222 
TABS,ioos:station:wmo:42043:1,2013-02-06T00:00:00Z,28.9818,-94.9186,1013.59,11111222 
TABS,ioos:station:wmo:42043:1,2013-02-06T00:30:00Z,28.9818,-94.9186,1013.69,11111222 
TABS,ioos:station:wmo:42043:1,2013-02-06T01:00:00Z,28.9818,-94.9186,1014.16,11111222 
TABS,ioos:station:wmo:42043:1,2013-02-06T01:30:00Z,28.9818,-94.9186,1014.48,11111222 
TABS,ioos:station:wmo:42043:1,2013-02-06T02:00:00Z,28.9818,-94.9186,1014.73,11111222 
TABS,ioos:station:wmo:42043:1,2013-02-06T02:30:00Z,28.9818,-94.9186,1015.11,11111222 
TABS,ioos:station:wmo:42043:1,2013-02-06T03:00:00Z,28.9818,-94.9186,1015.22,11111222 
TABS,ioos:station:wmo:42043:1,2013-02-06T03:30:00Z,28.9818,-94.9186,1015.23,11111222 
TABS,ioos:station:wmo:42043:1,2013-02-06T04:00:00Z,28.9818,-94.9186,1015.46,11111222 
TABS,ioos:station:wmo:42043:1,2013-02-06T04:30:00Z,28.9818,-94.9186,1015.49,11111222 
TABS,ioos:station:wmo:42043:1,2013-02-06T05:00:00Z,28.9818,-94.9186,1015.67,11111222 
TABS,ioos:station:wmo:42043:1,2013-02-06T05:30:00Z,28.9818,-94.9186,1015.49,11111222 
TABS,ioos:station:wmo:42043:1,2013-02-06T06:00:00Z,28.9818,-94.9186,1015.49,11111222 
TABS,ioos:station:wmo:42043:1,2013-02-06T06:30:00Z,28.9818,-94.9186,1015.12,11111222 
TABS,ioos:station:wmo:42043:1,2013-02-06T07:00:00Z,28.9818,-94.9186,1015.42,11111222 
TABS,ioos:station:wmo:42043:1,2013-02-06T07:30:00Z,28.9818,-94.9186,1015.15,11111222 
TABS,ioos:station:wmo:42043:1,2013-02-06T08:00:00Z,28.9818,-94.9186,1014.88,11111222 
TABS,ioos:station:wmo:42043:1,2013-02-06T08:30:00Z,28.9818,-94.9186,1014.86,11111222 
TABS,ioos:station:wmo:42043:1,2013-02-06T09:00:00Z,28.9818,-94.9186,1015.22,11111222 
TABS,ioos:station:wmo:42043:1,2013-02-06T09:30:00Z,28.9818,-94.9186,1015.91,11111222 
TABS,ioos:station:wmo:42043:1,2013-02-06T10:00:00Z,28.9818,-94.9186,1016.86,11111222 
TABS,ioos:station:wmo:42043:1,2013-02-06T10:30:00Z,28.9818,-94.9186,1016.18,11111222 
TABS,ioos:station:wmo:42043:1,2013-02-06T11:00:00Z,28.9818,-94.9186,1015.41,11111222 
TABS,ioos:station:wmo:42043:1,2013-02-06T11:30:00Z,28.9818,-94.9186,1015.45,11111222 
TABS,ioos:station:wmo:42043:1,2013-02-06T12:00:00Z,28.9818,-94.9186,1015.22,11111222 
TABS,ioos:station:wmo:42043:1,2013-02-06T12:30:00Z,28.9818,-94.9186,1015.48,11111222 
TABS,ioos:station:wmo:42043:1,2013-02-06T13:00:00Z,28.9818,-94.9186,1015.5,11111222 
TABS,ioos:station:wmo:42043:1,2013-02-06T13:30:00Z,28.9818,-94.9186,1017.07,11111222 
TABS,ioos:station:wmo:42043:1,2013-02-06T14:00:00Z,28.9818,-94.9186,1016.86,11111222 
TABS,ioos:station:wmo:42043:1,2013-02-06T14:30:00Z,28.9818,-94.9186,1016.57,11111222 
TABS,ioos:station:wmo:42043:1,2013-02-06T15:00:00Z,28.9818,-94.9186,1016.6,11111222 
TABS,ioos:station:wmo:42043:1,2013-02-06T15:30:00Z,28.9818,-94.9186,1016.25,11111222 
TABS,ioos:station:wmo:42043:1,2013-02-06T16:00:00Z,28.9818,-94.9186,1016.3,11111222 
TABS,ioos:station:wmo:42043:1,2013-02-06T16:30:00Z,28.9818,-94.9186,1016.23,11111222 
TABS,ioos:station:wmo:42043:1,2013-02-06T17:00:00Z,28.9818,-94.9186,1016.01,11111222 
TABS,ioos:station:wmo:42043:1,2013-02-06T17:30:00Z,28.9818,-94.9186,1014.39,11111222 
TABS,ioos:station:wmo:42043:1,2013-02-06T18:00:00Z,28.9818,-94.9186,1013.84,11111222 
TABS,ioos:station:wmo:42043:1,2013-02-06T18:30:00Z,28.9818,-94.9186,1013.63,11111222 
TABS,ioos:station:wmo:42043:1,2013-02-06T19:00:00Z,28.9818,-94.9186,1013.1,11111222 
TABS,ioos:station:wmo:42043:1,2013-02-06T19:30:00Z,28.9818,-94.9186,1012.52,11111222 
TABS,ioos:station:wmo:42043:1,2013-02-06T20:00:00Z,28.9818,-94.9186,1012.36,11111222 
TABS,ioos:station:wmo:42043:1,2013-02-06T20:30:00Z,28.9818,-94.9186,1012.16,11111222 